Location: Bergnershof
(48.9468°N, 10.9431°E)
Time: 03:43:53
(UTC+00:00)

Cosmos 1503 Rocket - Pass Details

Date: 03 March 2021
Orbit: 753 x 790 km, 74.0° (Epoch: 16 April)

Event Time Altitude Azimuth Distance (km) Brightness Sun altitude
Rises 18:28:40 0° 334° (NNW) 3,232 7.7 -14.8°
Reaches altitude 10° 18:31:04 10° 332° (NNW) 2,298 7.0 -15.2°
Maximum altitude 18:36:13 67° 251° (WSW) 821 4.3 -16.1°
Drops below altitude 10° 18:41:19 10° 170° (S) 2,272 6.2 -16.9°
Sets 18:43:40 0° 167° (SSE) 3,192 7.0 -17.3°
